FOX-1CLIFF (AO-95) (43770 NORAD) Tracking and Keplerian Element Data

This shows tracking and keplerian element data for the satellite.

Feedback or suggestion? Click here.




ElementValue
Catalog43770
NameFOX-1CLIFF (AO-95)
Epoch Orbit32029
Epoch Day286.87465757
Epoch Year2024
RAAN342.3699
Inclination97.532
Eccentricity0.0011555
Argument of Perigee325.9697
Mean Anonmoly34.0789
Mean Motion15.09400679
Decay Rate0.00020131
L11 43770U 18099N 24286.87465757 .00020131 00000+0 12590-2 0 9994
L22 43770 97.5320 342.3699 0011555 325.9697 34.0789 15.09400679320291



Live tracking and technical data element details for FOX-1CLIFF (AO-95) (NORAD 43770). FOX-1CLIFF (AO-95) can be tracked NOW for your location showing map with azimuth and elevation plus other details from your city location.







IsCatalogInMostPopularTable: catalog: 43770, numindb: 412
Update: records affected: 1



GetName: 43770 FOX-1CLIFF (AO-95)

Hit Count: updated at: Thu, 23 Jan 2025 18:00:23 GMT